Wind_Speed
30 30 29 28 27 26 26 26 25 23 22 23 21 19 19 18 16 15 13 12 11 12 12 11 14 15 14 14 16 19 20 20 18 17 18 19 20 22 22 20 18 16
32 31 28 27 26 25 25 25 24 23 22 22 21 20 18 17 16 14 12 11 11 11 12 12 14 16 15 14 15 17 19 20 18 17 17 18 18 21 22 20 17 16
33 31 28 28 27 25 25 24 23 23 22 22 21 19 18 16 15 13 11 11 12 12 13 12 14 16 16 15 15 16 17 18 18 17 16 17 18 20 21 20 18 18
33 32 30 28 27 26 25 25 24 23 22 22 21 20 18 16 15 13 10 11 14 13 12 11 13 16 17 16 16 15 16 16 17 17 16 16 18 20 20 19 19 19
33 33 31 28 27 28 28 26 25 24 23 22 21 20 19 17 15 14 12 14 16 15 13 12 13 16 18 17 17 18 17 17 17 17 16 17 19 20 19 19 19 19
33 32 30 29 29 30 30 28 27 26 23 21 19 18 18 17 16 15 15 16 16 15 14 14 13 15 16 14 15 17 16 17 18 17 16 18 19 19 18 18 19 19
30 30 31 30 30 30 30 29 27 25 22 20 19 19 18 17 17 16 15 16 15 15 16 15 14 16 15 11 10 12 13 15 17 16 17 18 17 17 18 18 18 19
28 29 31 30 29 30 30 29 27 25 23 23 21 19 18 17 16 15 14 15 15 15 16 16 14 16 16 13 10 10 12 14 16 16 17 17 16 16 18 17 16 18
27 27 29 29 28 29 29 28 28 26 25 24 22 20 18 17 16 14 13 14 15 15 16 17 15 14 15 15 13 12 12 12 13 14 15 16 17 16 16 16 15 17
24 26 27 27 27 28 29 28 27 27 26 24 23 22 19 17 17 14 13 15 16 16 16 16 15 14 14 13 13 14 13 12 11 10 11 14 16 16 16 16 17 17
21 28 27 26 29 29 29 29 27 26 26 25 24 22 19 18 17 15 15 16 14 14 15 14 12 13 14 13 13 13 13 13 13 12 12 12 14 15 14 15 18 18
18 27 28 26 29 31 29 28 27 26 25 24 23 22 20 19 17 15 15 15 15 15 16 14 13 14 14 12 12 14 13 13 14 14 14 13 14 15 14 15 19 18
15 19 26 28 28 30 30 28 27 26 25 24 22 21 21 19 18 17 15 15 17 18 17 16 15 15 14 11 11 13 15 14 12 13 14 14 14 15 14 16 18 16
15 14 18 28 29 29 29 28 27 26 24 23 22 21 20 18 18 18 18 18 20 20 18 18 18 16 12 10 11 12 14 13 12 11 13 16 17 17 15 15 14 13
17 13 13 22 28 30 29 27 26 25 24 23 22 21 19 18 19 21 23 24 23 22 22 21 20 18 13 11 10 11 12 12 13 14 15 17 17 17 17 17 14 12
18 16 15 16 19 26 27 26 25 25 25 25 22 21 19 19 22 24 25 25 23 22 22 21 21 19 16 13 11 9 8 9 10 12 14 16 16 16 18 18 15 13
18 18 20 16 15 21 25 25 25 26 26 25 22 22 21 21 23 25 24 23 22 21 20 19 19 18 17 15 13 10 8 8 8 9 11 11 13 15 17 17 17 16
17 16 19 21 21 23 23 24 26 27 25 24 23 23 23 23 25 25 22 21 20 19 18 18 17 16 15 15 14 13 10 9 9 9 7 7 9 13 16 18 19 19
17 13 15 19 21 22 21 23 27 28 25 25 25 25 25 25 25 23 22 20 19 17 17 17 16 15 13 13 13 13 12 11 10 9 9 10 11 14 19 22 22 20
17 16 14 16 19 21 20 22 26 28 27 28 28 26 26 26 24 23 22 20 18 18 17 16 16 14 13 13 12 11 12 13 12 13 15 17 18 19 20 21 21 20
10 17 19 18 20 23 23 23 27 30 30 30 29 28 26 25 24 23 22 21 19 19 17 16 15 14 12 12 12 11 12 14 14 16 18 19 20 21 20 19 18 17
19 19 23 23 24 26 26 24 25 30 32 31 30 28 26 24 23 22 22 21 20 19 18 17 15 13 13 13 13 13 14 15 15 16 18 20 21 21 20 18 16 15
28 25 26 27 27 28 28 25 25 28 30 31 31 28 26 25 23 22 21 20 19 18 18 18 16 14 13 14 14 14 15 17 18 18 18 20 21 21 19 18 16 14
33 28 27 31 32 30 28 27 26 27 28 29 29 28 26 25 23 22 21 20 19 18 18 18 18 15 14 14 15 15 17 19 20 20 20 21 21 20 19 17 16 14
35 31 28 32 34 31 28 28 26 26 28 28 28 27 26 24 22 22 21 19 18 18 17 18 19 17 14 13 14 16 19 22 23 23 23 21 20 20 18 16 14 13
35 32 30 33 35 32 28 27 25 25 26 26 25 25 24 23 21 20 20 19 18 17 17 17 17 16 14 12 12 14 15 18 21 24 24 22 20 18 16 14 12 10
Wind_Direction
180 178 176 177 179 178 177 177 173 165 165 168 169 169 169 169 168 165 166 169 165 164 172 164 147 153 166 172 175 178 184 190 191 194 198 198 197 192 188 189 188 186
180 177 175 176 178 176 173 172 168 163 162 163 165 164 160 159 160 156 153 154 149 149 160 161 153 155 161 168 175 176 181 187 189 191 197 197 193 190 188 186 184 186
180 176 173 173 173 172 169 166 163 163 161 160 157 152 149 149 151 149 150 153 148 145 154 158 156 158 161 167 175 178 177 180 186 190 193 194 193 189 188 187 182 185
181 176 171 171 172 170 167 162 160 160 158 153 150 146 145 145 147 150 156 160 155 149 150 152 152 156 160 165 175 180 176 179 186 190 189 191 193 189 189 190 184 184
179 174 170 170 169 166 163 160 158 156 151 148 148 148 148 148 149 150 151 155 155 148 145 147 145 149 156 165 175 177 177 179 184 189 191 187 186 186 190 192 187 186
175 171 169 167 164 162 160 156 153 152 150 149 149 148 149 149 149 149 145 146 150 147 148 150 146 146 152 162 170 173 177 182 183 186 190 187 183 186 192 195 192 191
174 169 167 165 162 160 156 152 151 151 149 147 146 146 148 146 146 149 146 145 148 149 149 151 152 153 156 158 162 165 171 178 179 178 181 183 183 185 190 192 192 192
175 170 166 163 160 158 154 152 152 149 147 146 146 146 148 148 147 149 150 152 155 157 155 153 152 156 161 162 164 168 169 173 176 173 173 179 180 183 186 184 184 186
174 170 166 162 158 156 155 153 151 148 147 148 146 146 146 147 147 145 150 155 154 156 158 156 151 154 163 165 168 175 174 173 178 176 174 178 177 178 181 181 181 184
173 168 167 163 159 158 156 153 151 150 150 147 145 148 149 147 147 144 144 143 140 143 150 152 151 154 160 161 163 171 176 178 180 179 179 178 173 174 181 184 184 183
180 170 170 167 161 159 156 154 152 152 150 145 145 149 147 143 143 142 140 140 143 147 146 145 150 158 162 162 163 165 169 179 184 182 182 180 176 180 186 187 183 182
197 176 173 169 162 158 156 155 154 152 148 145 145 143 139 138 139 140 143 148 153 152 149 149 152 158 158 156 164 168 167 172 178 178 178 180 183 190 192 186 183 183
216 191 173 166 162 160 158 156 154 152 148 146 144 141 139 141 146 149 149 149 150 150 154 156 150 149 148 131 132 158 169 170 170 175 184 188 186 187 189 184 180 182
211 229 187 167 163 162 160 157 154 151 149 147 144 142 141 143 149 150 142 138 143 146 148 150 146 148 153 133 115 128 145 147 139 143 164 177 181 183 185 181 171 168
198 233 209 172 164 162 161 159 154 151 150 148 145 143 140 136 137 139 135 132 135 136 134 136 138 140 144 140 129 123 124 121 114 113 123 137 152 166 174 172 159 150
209 205 192 179 166 161 162 160 155 150 147 146 144 142 139 133 132 134 134 133 131 130 129 127 127 128 129 132 137 140 137 128 117 114 118 120 128 141 152 156 148 142
213 195 180 181 173 161 159 158 154 149 144 143 143 141 139 137 135 134 133 133 130 128 128 127 123 123 125 126 129 140 152 154 141 128 126 131 138 141 145 149 147 143
196 192 175 171 170 162 158 156 153 148 145 144 141 140 139 137 136 135 133 132 132 129 126 126 127 127 129 128 128 128 128 140 157 156 144 147 156 159 156 149 144 143
191 188 167 161 165 164 159 155 151 148 146 142 138 138 138 135 135 135 133 131 132 130 126 126 129 132 139 142 137 125 112 112 127 136 129 120 126 149 157 147 139 142
193 185 169 158 158 158 154 148 143 141 138 136 136 137 135 133 133 133 130 129 130 129 127 124 125 129 140 153 154 136 116 106 105 111 114 108 107 122 139 140 138 140
142 154 153 145 138 138 137 132 129 129 129 129 130 131 130 130 131 130 128 126 127 130 129 121 116 119 129 144 153 146 126 112 107 109 109 106 106 112 121 127 132 134
70 101 118 119 118 120 118 112 113 119 123 124 123 121 122 123 124 124 124 122 122 128 128 118 110 112 118 125 135 140 133 121 116 113 109 108 111 114 118 120 122 126
53 67 87 95 97 102 103 100 101 106 114 120 120 116 115 116 116 115 116 116 117 120 122 116 108 106 111 115 121 132 134 126 122 119 113 112 114 116 119 118 113 114
49 51 68 80 80 80 86 93 96 97 103 112 115 112 111 112 113 112 110 109 109 110 113 112 105 102 108 111 109 118 126 124 122 119 113 113 115 115 116 116 109 105
55 48 53 70 75 72 74 82 87 92 98 104 107 109 110 111 112 109 104 101 101 102 105 106 103 99 104 111 107 107 113 115 117 116 111 109 110 109 108 107 102 96
60 53 50 61 70 70 70 74 78 82 88 93 98 103 105 106 106 103 99 95 95 95 95 96 97 94 94 102 107 105 105 108 110 110 109 108 109 108 106 103 97 88
Height
785 786 787 789 790 792 794 795 797 799 802 804 806 808 810 812 814 815 817 818 820 821 822 824 825 827 827 828 829 830 830 831 832 833 834 836 837 838 840 842 843 845
784 784 786 787 788 790 792 794 796 798 800 803 805 807 809 811 812 814 815 817 819 820 821 823 825 826 827 827 827 829 829 830 831 832 834 835 836 838 839 841 843 844
782 783 784 786 787 788 791 793 795 797 799 801 803 805 807 809 810 812 814 816 818 820 821 823 824 825 826 826 826 826 828 829 830 831 833 834 835 837 838 840 842 843
781 782 783 784 785 787 789 791 793 795 797 799 801 804 805 807 809 811 814 816 818 820 821 823 824 825 826 826 825 825 827 829 830 831 832 833 834 836 837 839 841 842
781 782 782 783 784 785 787 788 790 793 795 798 800 803 805 807 809 811 813 816 818 820 821 823 824 825 826 825 824 825 826 828 829 830 831 833 834 836 837 838 840 841
782 782 782 783 783 784 785 786 789 791 794 797 800 802 805 807 809 812 813 815 818 820 821 822 823 824 825 824 825 825 826 827 828 829 830 832 834 835 836 838 839 840
783 783 783 784 784 784 784 786 788 790 793 796 799 802 805 807 809 811 813 815 817 818 820 822 823 824 824 824 824 824 825 825 827 828 829 831 832 834 835 837 838 839
785 785 784 785 785 785 785 785 787 789 792 795 798 802 804 807 809 810 812 814 815 817 819 821 823 823 824 824 823 824 824 825 826 828 829 830 831 833 834 835 837 838
786 786 787 787 787 787 786 786 787 788 790 793 796 800 803 806 808 809 811 812 814 816 818 820 822 823 824 824 824 824 824 824 825 827 829 830 831 832 833 834 836 837
787 787 788 788 788 789 788 788 788 788 789 792 795 799 802 805 807 808 810 812 814 816 818 820 821 822 824 824 825 825 824 824 825 826 827 829 830 831 832 834 835 836
788 787 787 788 788 789 789 789 790 790 790 791 794 798 801 804 806 808 809 811 813 815 817 819 821 822 823 824 825 825 825 825 825 826 827 828 829 831 832 833 834 836
787 785 786 787 788 788 789 789 790 791 792 792 794 797 800 803 805 807 809 811 813 815 817 819 820 821 823 824 825 825 826 826 826 827 828 828 829 830 831 832 833 835
786 786 785 786 787 788 789 789 790 791 792 793 794 796 799 802 805 807 809 810 813 815 817 818 819 821 822 823 824 825 826 826 827 827 828 829 830 830 831 832 833 835
785 788 787 785 787 788 789 789 789 791 792 793 795 797 800 802 804 806 808 811 813 815 816 817 819 820 822 823 824 824 826 827 827 827 827 828 829 830 832 833 834 835
783 787 788 786 787 788 789 789 789 790 792 794 796 797 800 802 803 806 808 811 813 815 816 817 818 820 821 823 824 825 826 827 827 828 828 828 829 830 832 833 834 835
782 784 786 788 789 789 790 790 789 790 791 794 796 798 800 802 803 806 809 811 813 815 816 817 818 820 821 823 824 825 826 827 827 828 829 829 830 831 832 833 834 835
783 784 784 787 790 790 790 789 789 790 792 794 796 798 800 801 803 806 808 810 813 815 816 817 819 820 822 823 824 825 826 827 827 828 829 830 831 831 832 833 834 835
784 785 783 784 788 789 789 788 788 789 792 794 795 797 799 801 804 806 808 810 812 814 816 818 819 820 822 823 825 826 827 827 828 829 829 830 830 831 832 833 834 835
781 784 784 784 786 788 788 787 787 789 791 793 795 796 798 801 804 806 808 810 812 814 816 818 819 821 822 824 825 826 827 828 828 829 830 830 830 830 832 834 834 835
778 781 784 786 786 786 788 788 788 788 790 792 794 796 799 801 804 807 809 811 813 815 817 818 820 821 822 823 825 826 827 828 829 830 830 831 831 831 833 834 835 836
778 779 781 784 784 785 787 789 789 788 790 793 794 797 800 802 805 807 810 812 814 815 817 819 820 821 822 823 824 826 827 828 829 830 830 831 832 832 834 835 836 837
781 780 780 782 783 784 787 790 791 789 791 793 795 798 801 804 807 809 811 813 815 816 817 819 820 822 822 823 824 825 827 828 829 830 830 831 832 833 834 836 837 838
786 785 783 783 784 785 787 791 793 793 793 794 796 800 803 805 808 811 813 814 816 817 818 819 821 822 823 824 825 825 827 827 828 829 830 831 833 834 835 836 837 838
792 792 790 787 786 788 791 793 795 796 796 797 798 801 804 807 810 812 814 816 817 819 820 820 821 822 824 824 825 826 826 827 827 828 830 832 833 834 835 836 837 838
798 799 797 792 790 793 796 797 798 800 799 800 802 804 807 810 813 814 816 818 820 821 821 821 821 823 824 825 826 827 827 828 828 828 830 832 834 835 836 836 837 838
803 805 803 797 794 798 800 801 803 804 802 803 806 808 810 813 815 817 819 821 822 822 822 822 822 823 825 825 826 827 829 829 829 829 831 833 834 835 836 836 837 838